Regional Weather Roundup
Issued by NWS

Home | Current Version | Previous Version | Graphics & Text | Print | Product List | Glossary On
Versions: 1 2 3 4 5 6 7 8 9 10 11 12 13 14 15 16 17 18 19 20 21 22 23 24 25 26 27 28 29 30 31 32 33 34 35 36 37 38 39 40 41 42 43 44 45 46 47 48 49 50
000
ASUS43 KLMK 240602
RWRKY
KENTUCKY REGIONAL WEATHER ROUNDUP
NATIONAL WEATHER SERVICE LOUISVILLE KY
100 AM EST FRI NOV 24 2017

NOTE "FAIR" INDICATES FEW OR NO CLOUDS BELOW 12,000 FEET
WITH NO SIGNIFICANT WEATHER AND/OR OBSTRUCTIONS TO VISIBILITY.

KYZ001>023-026-027-061>063-070>075-240700-
WESTERN AND SOUTH CENTRAL KENTUCKY

CITY           SKY/WX    TMP DP  RH WIND       PRES   REMARKS
PADUCAH        CLEAR     33  25  72 S3        30.00F
HENDERSON      CLEAR     33  25  72 S3        30.02F
OWENSBORO      CLEAR     34  26  72 SE3       30.03S
HOPKINSVILLE   CLOUDY    35  26  70 SE5       30.03S WCI  30
BOWLING GREEN  CLEAR     31  27  85 CALM      30.05F
GLASGOW        NOT AVBL
$$

KYZ024-025-028>034-038-045-046-053-240700-
NORTH CENTRAL KENTUCKY

CITY           SKY/WX    TMP DP  RH WIND       PRES   REMARKS
LOUISVILLE/SDF CLEAR     36  27  69 CALM      30.02F
LOUISVILLE/LOU CLEAR     33  27  78 CALM      30.03F
FORT KNOX      CLEAR     30  24  78 CALM      30.01S
$$

KYZ035>037-039>044-047>052-055>060-089>105-240700-
NORTHEAST KENTUCKY

CITY           SKY/WX    TMP DP  RH WIND       PRES   REMARKS
LEXINGTON      CLOUDY    29  23  78 SE7       30.02F WCI  22
COVINGTON      CLEAR     30  25  81 S3        30.00S
FRANKFORT      CLOUDY    29  23  78 CALM      30.01F
$$

KYZ054-064>069-076>088-106>120-240700-
SOUTHEAST KENTUCKY

CITY           SKY/WX    TMP DP  RH WIND       PRES   REMARKS
JACKSON        CLEAR     38  19  46 CALM      30.03R
LONDON         CLEAR     30  25  81 CALM      30.04S
SOMERSET       CLOUDY    30  27  86 CALM      30.07R
MIDDLESBORO    CLEAR     29  27  93 CALM      30.07S
MONTICELLO     CLEAR     25  23  92 W9        30.07R WCI  15
$$





USA.gov is the U.S. government's official web portal to all federal, state and local government web resources and services.